Theta_e
307 309 310 310 310 310 310 310 311 312 314 315 315 315 316 317 317 317 316 316 316 314 314 314 311 308 305 304 305 308 304 303 301 306 309 310 311 311 310 312 312 310 310
310 310 310 309 308 308 309 310 310 311 312 314 315 316 316 315 313 314 313 313 313 312 312 313 312 311 307 307 310 311 307 306 306 308 306 302 302 302 302 303 309 307 304
312 311 310 308 306 306 307 309 310 311 311 313 314 314 314 312 311 310 310 309 308 308 309 310 309 309 307 307 307 308 308 311 311 309 301 298 298 298 299 300 302 302 307
312 311 310 307 306 306 307 308 309 309 309 310 312 312 312 310 309 307 305 303 302 302 303 306 308 307 307 306 306 306 309 308 306 301 297 295 296 296 297 297 296 296 295
312 311 309 307 305 306 307 306 306 307 308 309 310 310 309 309 308 304 302 299 299 298 299 301 303 307 310 307 305 303 306 301 299 297 295 293 293 293 294 295 292 292 294
312 312 310 308 306 306 306 305 305 305 304 305 306 307 307 308 301 302 300 296 295 295 295 295 298 304 304 304 305 305 305 300 297 296 293 293 291 291 293 292 290 290 291
313 313 313 310 307 306 306 306 303 301 301 301 302 304 304 303 298 298 299 294 292 290 290 291 294 298 299 298 300 302 302 301 301 297 295 293 292 292 293 290 289 288 289
313 315 314 310 306 306 305 304 301 300 299 298 299 300 302 303 298 297 297 292 290 290 290 289 290 293 294 296 295 295 293 294 294 296 295 294 291 292 293 291 291 290 290
314 316 315 311 307 306 305 303 302 300 299 299 299 299 301 301 298 297 297 294 293 293 295 295 291 290 293 293 293 292 291 291 294 295 294 293 292 293 294 292 289 289 286
314 316 317 313 309 306 305 304 304 301 300 300 299 299 300 301 296 296 299 300 297 298 298 298 299 293 293 293 291 289 289 290 288 287 288 289 291 292 295 290 289 288 286
316 317 318 315 311 308 306 305 306 304 302 300 299 298 298 298 298 296 297 302 301 299 298 298 298 296 294 292 291 288 289 287 289 286 286 286 287 288 290 291 290 289 287
315 317 317 316 316 311 308 306 307 306 304 302 300 298 298 297 296 295 295 297 299 300 298 299 296 294 294 292 291 289 289 289 285 285 284 285 286 287 288 290 292 291 291
314 315 316 318 317 315 310 308 306 306 306 305 305 303 303 303 300 296 294 294 296 299 299 297 294 293 292 292 291 291 290 286 284 284 285 286 288 290 291 292 293 293 292
313 315 316 316 317 317 315 313 311 309 308 308 307 307 307 305 305 302 299 295 295 298 298 295 294 293 292 292 290 291 291 291 288 286 287 290 292 292 292 295 294 293 291
314 315 316 317 315 317 317 316 315 314 311 311 310 310 308 306 309 306 305 303 297 295 293 290 289 290 290 290 289 288 289 289 292 294 292 292 292 293 294 294 295 294 292
314 314 315 316 316 317 317 317 305 304 302 301 298 308 313 300 298 297 298 297 295 292 293 293 297 296 294 296 295 292 289 290 290 292 292 293 294 294 293 293 293 292 290
314 315 314 313 315 316 316 316 315 313 301 297 299 297 297 295 295 295 295 295 293 294 302 304 300 300 296 296 295 294 292 291 290 290 290 291 292 292 291 293 292 290 288
315 305 314 312 314 314 315 316 316 316 314 315 296 298 295 295 295 295 294 298 299 296 302 304 306 300 296 297 296 291 290 287 286 287 287 288 289 292 293 293 293 291 288
314 313 313 313 313 313 315 315 316 316 316 315 301 297 294 292 293 292 294 310 305 299 299 301 301 302 301 297 292 288 287 285 285 285 286 289 292 293 293 294 293 288 288
313 306 308 314 314 314 315 315 316 317 316 313 308 302 299 301 304 304 302 305 304 304 303 302 300 296 293 289 288 286 285 286 285 285 286 289 292 293 293 293 292 291 290
314 310 302 311 311 313 312 312 312 313 312 306 303 299 293 304 302 303 302 302 301 299 298 295 291 290 290 289 287 287 286 287 287 287 288 292 293 293 293 293 291 290 290
312 313 314 313 314 313 310 309 308 305 302 301 300 298 293 301 299 296 294 294 293 292 292 291 290 289 289 289 289 288 288 288 289 290 292 293 293 292 292 291 291 290 289
315 313 312 311 309 301 308 309 307 305 303 302 302 302 300 299 299 298 296 296 295 294 292 292 291 290 290 290 290 291 291 292 294 293 292 291 290 290 291 290 292 289 288
316 314 314 313 312 310 310 309 306 300 304 302 300 298 297 297 296 295 295 294 293 292 292 291 291 291 291 290 290 290 290 289 290 291 293 292 291 290 291 290 289 289 288
316 315 312 309 307 305 304 304 302 302 300 299 297 295 295 295 294 292 291 290 290 291 290 290 290 290 290 289 289 289 286 286 288 287 289 289 288 289 290 289 289 287 286
312 310 308 307 306 304 302 299 298 298 296 296 295 294 294 293 293 292 292 292 291 291 291 290 290 290 290 289 288 285 284 283 282 283 286 287 288 289 291 289 288 287 287
Wind_Speed
5 4 5 4 3 3 5 4 5 5 6 7 7 7 9 8 7 10 8 7 8 6 5 7 7 6 4 4 4 3 3 3 5 1 1 2 3 2 4 5 5 5 5
6 5 5 5 3 4 4 4 4 7 6 7 7 8 8 9 7 9 8 6 8 8 7 8 7 5 6 5 4 4 4 3 5 5 1 3 5 4 4 6 3 4 5
5 5 4 4 5 3 3 4 5 7 6 6 7 7 7 7 9 8 8 8 7 7 6 8 6 7 5 3 3 5 4 3 3 5 3 2 3 2 5 4 3 3 2
7 6 6 5 5 4 3 4 6 5 7 7 7 7 7 7 7 7 8 8 7 6 6 6 6 5 8 6 4 4 4 5 4 5 4 2 2 2 3 3 3 3 2
6 7 7 6 5 4 5 5 6 6 6 6 8 6 6 7 5 7 7 7 7 6 5 5 4 3 4 4 4 4 6 4 4 4 3 2 2 1 4 2 2 0 0
6 7 5 6 6 5 5 6 6 6 6 6 6 7 6 4 8 10 9 7 5 6 6 4 4 6 6 5 7 6 4 9 6 5 3 3 3 3 3 3 4 3 2
7 6 6 6 5 5 6 6 6 6 5 6 6 6 6 5 7 8 9 6 6 6 6 5 3 4 5 6 8 8 9 11 9 4 6 6 6 7 6 4 3 3 3
8 7 6 6 6 6 6 7 5 4 5 5 5 5 6 5 9 10 9 7 5 5 5 5 4 3 3 5 5 6 6 6 5 2 4 4 3 6 4 5 6 4 2
10 9 8 7 7 6 7 7 4 5 4 4 4 6 6 5 9 10 9 6 5 5 4 3 3 3 3 5 5 4 3 2 5 8 7 7 8 10 7 5 3 4 1
11 11 10 9 8 8 7 7 3 3 3 3 3 4 5 6 8 9 6 3 3 3 3 4 4 5 6 7 5 4 3 4 2 3 3 5 5 5 9 4 6 5 3
13 11 11 11 11 9 8 5 5 5 5 5 5 5 6 6 6 8 9 5 4 4 4 5 5 10 9 9 8 6 7 5 5 4 3 2 1 3 3 4 6 5 5
13 13 12 11 10 8 10 6 6 7 7 6 5 5 5 6 9 10 13 12 8 7 6 5 5 10 11 11 9 9 7 5 3 4 3 4 4 5 5 5 6 5 3
15 14 13 12 11 10 9 7 5 6 6 6 6 6 7 6 6 14 15 16 11 7 6 6 8 10 9 7 10 10 9 4 4 4 5 5 5 5 4 4 5 6 5
18 16 13 13 12 10 9 8 8 8 8 7 7 8 8 5 5 5 8 8 12 10 1 2 3 3 4 4 4 6 6 6 7 6 7 7 3 3 5 5 4 4 3
18 17 15 13 12 12 11 11 11 12 13 12 12 12 9 7 12 15 12 9 5 4 6 3 2 2 3 4 4 5 5 5 8 9 7 7 7 6 7 4 5 4 6
18 15 14 13 11 11 10 9 13 13 18 19 8 9 8 3 5 10 13 12 14 16 4 4 5 6 7 7 7 7 7 10 10 8 8 8 8 8 6 4 4 5 6
19 17 13 14 11 12 10 11 11 12 15 11 16 11 6 7 7 11 14 14 13 11 4 5 6 8 8 9 8 8 9 8 8 8 8 8 6 5 4 5 6 4 5
20 19 14 13 13 12 12 12 10 11 11 10 2 6 13 13 13 14 15 13 5 6 5 7 7 5 5 5 4 5 6 4 5 6 6 5 6 7 6 8 9 8 4
16 13 14 12 12 13 12 11 10 11 9 8 3 5 9 9 7 8 16 3 6 4 5 4 3 4 3 3 4 4 5 5 5 4 5 6 7 7 8 9 9 7 5
16 18 14 12 11 11 10 10 9 9 3 5 4 3 3 2 2 3 1 3 3 4 3 4 5 4 3 3 3 3 4 4 4 5 6 6 6 7 9 7 6 4 5
12 8 11 6 5 6 5 5 5 6 6 7 6 4 3 4 5 4 3 2 1 3 2 2 2 0 1 2 2 3 4 5 5 5 4 5 5 6 6 6 4 5 4
7 7 7 8 7 8 8 9 9 10 9 9 6 5 6 7 5 7 4 3 3 3 2 3 3 3 1 2 3 3 4 5 5 4 5 4 3 3 4 3 3 4 4
11 12 11 10 9 9 9 8 9 9 9 9 8 7 7 7 5 10 2 5 4 5 5 5 5 4 5 5 4 3 4 5 5 4 4 3 4 4 4 4 5 3 3
15 14 13 11 9 10 6 5 8 11 10 6 11 4 6 7 7 7 6 7 8 7 7 8 8 9 6 5 4 5 5 5 4 5 5 4 3 2 2 0 2 3 4
15 13 12 11 12 13 8 5 2 9 11 9 8 9 9 7 8 8 7 5 5 8 7 6 5 7 8 10 9 9 8 8 7 5 3 3 2 2 2 1 1 2 2
9 9 10 11 11 10 12 9 8 10 11 10 10 9 10 9 7 6 6 8 7 7 7 6 8 11 11 8 8 8 8 6 5 5 3 3 1 1 1 3 5 2 3
Wind_Direction
172 156 135 126 114 110 104 97 88 80 94 88 78 76 81 81 79 79 72 85 90 94 90 110 104 116 114 113 114 101 108 113 115 49 106 22 55 123 70 75 89 106 120
181 158 149 132 123 114 115 101 87 87 75 95 79 76 75 73 73 92 88 76 97 90 96 97 108 107 112 141 151 155 149 121 125 133 74 46 71 47 79 93 97 90 107
173 158 150 146 135 129 137 131 106 99 91 91 95 94 92 80 76 65 85 80 76 77 79 104 115 120 110 120 133 148 142 109 111 127 123 47 69 32 61 56 64 76 75
162 171 162 167 164 156 151 132 111 110 102 94 90 99 103 97 91 89 87 78 70 69 72 87 105 114 134 137 124 130 125 119 116 110 91 108 121 45 75 116 88 41 50
169 172 180 168 157 147 136 129 121 117 113 111 110 93 92 110 124 116 107 117 120 108 84 77 72 92 118 153 145 161 130 104 116 119 119 122 148 142 171 169 126 128 25
174 191 172 153 149 152 130 128 120 121 125 120 115 125 123 124 135 124 131 131 125 124 124 99 103 107 97 96 112 129 145 143 154 139 144 172 183 162 148 159 134 139 229
174 177 172 160 156 151 135 130 130 132 121 130 138 143 144 135 144 137 126 127 136 144 149 151 132 98 98 96 67 74 61 44 60 155 166 192 177 184 151 150 158 146 194
175 175 172 163 162 149 143 142 130 129 144 147 154 155 151 167 166 152 135 137 142 166 171 173 157 146 91 95 88 79 60 51 25 16 191 191 193 163 138 161 161 126 62
182 176 176 168 161 164 165 165 163 150 163 175 176 169 179 189 179 170 147 147 164 191 186 178 158 150 124 101 88 82 48 57 61 64 80 116 124 132 147 115 117 115 211
182 182 176 171 167 177 172 170 159 159 181 171 199 212 209 209 199 186 163 140 189 232 256 251 218 209 182 174 153 156 205 239 131 75 62 70 105 131 161 166 159 161 163
181 175 177 178 176 182 171 164 164 167 158 190 206 222 227 220 225 204 198 178 196 207 226 233 224 207 204 195 188 187 203 166 192 175 165 159 190 206 208 197 186 156 161
179 177 179 185 185 172 177 177 169 164 179 197 203 238 236 229 217 211 207 218 180 197 221 219 212 202 202 200 199 205 193 160 153 182 202 220 217 217 223 212 209 215 213
180 184 184 184 185 177 175 174 159 176 184 201 201 219 236 220 223 215 211 216 218 219 226 206 186 200 206 208 216 203 182 186 183 192 221 219 207 206 194 211 214 215 228
187 188 187 185 187 182 190 188 189 191 202 206 207 222 229 217 220 206 218 218 224 231 338 85 184 164 155 189 197 215 208 199 197 212 221 229 215 184 207 201 202 189 194
189 189 190 194 188 190 193 188 196 212 202 201 213 213 207 218 226 209 199 200 203 176 124 118 127 164 204 224 236 229 220 209 219 224 226 227 231 223 228 198 221 197 201
188 192 193 193 192 197 195 207 230 231 210 221 226 212 229 340 69 177 175 151 159 153 140 179 215 222 224 226 233 237 227 226 231 230 226 226 230 228 222 181 194 203 199
191 191 190 195 193 195 197 205 220 236 231 228 238 235 142 148 105 145 159 173 162 141 217 230 235 215 221 218 224 232 243 233 230 224 232 229 227 222 187 202 194 184 209
191 190 186 188 195 197 200 206 214 225 230 237 168 216 170 172 170 165 139 116 142 229 200 222 250 241 204 219 226 235 250 243 220 223 220 210 207 216 210 213 206 201 182
193 194 193 188 186 191 197 203 211 222 229 232 131 55 41 38 56 135 160 178 184 169 208 195 233 244 233 204 228 228 226 234 221 217 226 220 222 213 227 221 210 190 148
191 194 188 187 185 186 189 196 203 217 191 90 89 113 121 320 73 102 19 37 302 93 226 162 221 231 259 231 240 239 250 256 248 235 233 224 222 214 227 201 181 170 196
187 177 164 135 143 160 138 129 106 88 79 69 64 14 198 125 107 80 67 36 230 200 189 234 34 270 254 270 271 267 255 257 249 252 253 244 226 222 216 207 177 167 190
111 120 118 116 117 112 110 107 104 102 108 112 105 86 23 47 74 85 35 68 29 40 50 61 43 22 325 258 273 280 290 290 280 254 246 239 224 214 189 179 190 221 187
97 96 89 81 84 91 96 103 106 109 108 101 94 90 87 82 3 74 30 42 41 47 47 54 44 25 20 18 11 346 333 328 316 298 275 236 195 194 195 213 230 180 186
107 104 105 91 85 78 44 88 112 112 121 121 91 124 116 120 96 81 65 52 48 44 43 41 41 43 34 31 26 30 15 346 332 312 278 253 270 7 45 288 228 216 189
114 121 125 128 125 111 96 106 124 113 103 117 121 101 83 78 73 67 60 66 67 59 51 47 46 48 44 37 26 16 3 1 1 3 29 69 85 79 46 53 355 317 303
107 105 105 104 109 116 123 130 113 99 107 102 95 96 93 85 82 84 76 68 64 57 52 41 38 37 31 21 9 2 359 1 7 3 0 341 318 63 9 333 314 266 268